Regional Weather Roundup
Issued by NWS Northern Indiana

Home | Current Version | Previous Version | Text Only | Print | Product List | Glossary Off
Versions: 1 2 3 4 5 6 7 8 9 10 11 12 13 14 15 16 17 18 19 20 21 22 23 24 25 26 27 28 29 30 31 32 33 34 35 36 37 38 39 40 41 42 43 44 45 46 47 48 49 50

764
ASUS43 KIWX 240400
RWRIWX

KIWX WEATHER ROUNDUP
NATIONAL WEATHER SERVICE NORTHERN INDIANA
1200 AM EDT TUE APR 24 2018

NOTE: "FAIR" INDICATES FEW OR NO CLOUDS BELOW 12,000 FEET WITH NO
SIGNIFICANT WEATHER AND/OR OBSTRUCTIONS TO VISIBILITY.

* THESE STATIONS ARE NOT UNDER NWS QUALITY CONTROL. THEY ALSO MAY NOT
  REPORT WEATHER SUCH AS PRECIPITATION OR FOG.

INZ001>027-240500-
NORTHERN INDIANA

CITY           SKY/WX    TMP DP  RH WIND       PRES   REMARKS
KNOX*          CLOUDY    52  52 100 E8        30.10S
SOUTH BEND     CLOUDY    55  47  74 SE12      30.12F
GOSHEN         LGT RAIN  54  48  80 SE9       30.11F
MONTICELLO*    CLOUDY    53  51  94 E6        30.06F
ROCHESTER*     MOCLDY    54  52  94 E8        30.10F
WARSAW*        CLOUDY    50  50 100 E8        30.11F
FORT WAYNE     CLOUDY    52  50  93 E9        30.12F

$$
INZ028>050-240500-
CENTRAL INDIANA

CITY           SKY/WX    TMP DP  RH WIND       PRES   REMARKS
LAFAYETTE      CLOUDY    53  51  93 E12       30.05S
KOKOMO*        CLOUDY    51  49  92 E8        30.08F
MUNCIE*        CLOUDY    53  48  83 SE13      30.06F
INDIANAPOLIS   CLOUDY    53  50  89 E13       30.03F

$$
MIZ043>046-050>051-056>058-064>065-071>073-077>080-240500-
SOUTHWEST LOWER MICHIGAN

CITY           SKY/WX    TMP DP  RH WIND       PRES   REMARKS
BATTLE CREEK   CLOUDY    56  47  71 S13       30.14F
BENTON HARBOR  CLOUDY    58  50  75 SE8       30.11F
COLDWATER*     CLOUDY    54  46  73 S8        30.15F
HILLSDALE*     RAIN      52  43  71 SE12G18   30.16S
HOLLAND        FAIR      59  49  69 S7        30.11F
GRAND RAPIDS   CLOUDY    59  49  69 S7        30.12F
KALAMAZOO      CLOUDY    57  47  69 S8        30.13F
THREE RIVERS*  CLOUDY    56  46  69 SE10      30.13F

$$
OHZ001>008-015>018-024>025-240500-
NORTHWEST OHIO

CITY           SKY/WX    TMP DP  RH WIND       PRES   REMARKS
WAUSEON*       CLOUDY    55  48  76 SE8       30.16F
DEFIANCE       LGT RAIN  52  47  83 E5        30.14F
FINDLAY        LGT RAIN  56  44  64 SE12G21   30.12F
TOLEDO EXPRESS CLOUDY    56  48  74 CALM      30.15F
TOLEDO METCALF CLOUDY    56  45  66 E5        30.16F
LIMA           CLOUDY    53  47  79 SE18G24   30.11F

$$
AND FOR LAKE MICHIGAN COASTAL AND OPEN LAKE BUOY OBSERVATIONS

STATION/POSITION TEMP    WIND        PRES    VSBY  WAVE
                 AIR SEA DIR/SP/G                  HT/PER
                 (F)     (DEG/KT/KT) (MB)    (MI)  (FT/S)
CALUMET HARBOR    44     330/  5/  6 1019.0
MICHIGAN CITY     47     100/  1/  2   N/A
BURNS HARBOR      43        CALM     1020.0F
SAINT JOSEPH      48        CALM     1020.3
4 MI NW BRIDGMAN  44 42   20/  2/  4 1020.3F         2/ 4

$$
&&




USA.gov is the U.S. government's official web portal to all federal, state and local government web resources and services.